DW4238 Weather Reports


time (UTC)temp
F
wind
direction
speed
knots
gust
knots
rain 1hr
in
rain 24hr
in
rain mn
in
humidity
%
barometer
mb
20260506032056 78 153 9.6 15.6 0.00 0.00 0.00 85 1006.9
20260506031526 78 165 10.4 16.5 0.00 0.00 0.00 85 1007.0
20260506031031 78 179 10.4 17.4 0.00 0.00 0.00 85 1006.9
20260506030035 78 181 8.7 13.9 0.00 0.00 0.00 85 1006.9
20260506025550 78 159 8.7 13.0 0.00 0.00 0.00 85 1006.9
20260506024545 78 165 7.0 14.8 0.00 0.00 0.00 84 1006.8
20260506024032 78 156 8.7 14.8 0.00 0.00 0.00 84 1006.8
20260506023053 78 172 7.0 13.0 0.00 0.00 0.00 84 1006.7
20260506022541 78 180 7.8 13.0 0.00 0.00 0.00 84 1006.6
20260506021601 78 186 7.8 10.4 0.00 0.00 0.00 83 1006.6
20260506021104 78 153 6.1 10.4 0.00 0.00 0.00 83 1006.6
20260506020043 79 167 7.8 13.0 0.00 0.00 0.00 83 1006.5
20260506015556 79 180 7.8 13.0 0.00 0.00 0.00 83 1006.5
20260506015054 79 171 7.0 10.4 0.00 0.00 0.00 83 1006.4
20260506014524 79 180 7.8 10.4 0.00 0.00 0.00 83 1006.2
20260506014036 79 163 7.8 12.2 0.00 0.00 0.00 83 1006.2
20260506013057 79 177 7.8 12.2 0.00 0.00 0.00 82 1006.0
20260506012600 79 175 7.8 13.9 0.00 0.00 0.00 82 1005.8
20260506012110 79 168 8.7 13.0 0.00 0.00 0.00 82 1005.8
20260506011528 79 165 8.7 14.8 0.00 0.00 0.00 82 1005.6
20260506011043 79 182 8.7 16.5 0.00 0.00 0.00 82 1005.6
20260506010104 80 152 11.3 14.8 0.00 0.00 0.00 81 1005.5
20260506005614 80 157 10.4 14.8 0.00 0.00 0.00 81 1005.4
20260506005116 80 166 9.6 13.9 0.00 0.00 0.00 81 1005.4
20260506004543 80 175 7.8 14.8 0.00 0.00 0.00 80 1005.4
20260506004024 80 146 9.6 14.8 0.00 0.00 0.00 80 1005.4
20260506003614 81 155 9.6 13.0 0.00 0.00 0.00 80 1005.3
20260506003041 81 155 9.6 13.0 0.00 0.00 0.00 80 1005.3
20260506002544 81 171 8.7 13.0 0.00 0.00 0.00 80 1005.4
20260506001608 81 172 9.6 15.6 0.00 0.00 0.00 79 1005.4
20260506001118 81 161 7.8 9.6 0.00 0.00 0.00 80 1005.3
20260506000555 81 175 6.1 15.6 0.00 0.00 0.00 80 1005.5
20260506000024 81 170 10.4 15.6 0.00 0.00 0.00 79 1005.5
20260505235535 81 158 6.1 14.8 0.00 0.00 0.00 80 1005.5
20260505234555 81 178 9.6 14.8 0.00 0.00 0.00 79 1005.3
20260505234058 81 165 10.4 15.6 0.00 0.00 0.00 79 1005.3
20260505233100 81 161 10.4 15.6 0.00 0.00 0.00 79 1005.3
20260505232603 82 160 11.3 15.6 0.00 0.00 0.00 78 1005.1
20260505231606 82 149 9.6 15.6 0.00 0.00 0.00 78 1005.3
20260505231034 82 158 8.7 13.0 0.00 0.00 0.00 78 1005.3
20260505225526 82 166 12.2 13.9 0.00 0.00 0.00 77 1005.1
20260505225133 83 166 7.8 14.8 0.00 0.00 0.00 77 1005.0
20260505224537 83 182 10.4 14.8 0.00 0.00 0.00 78 1004.9
20260505224042 83 180 7.8 14.8 0.00 0.00 0.00 78 1005.1
20260505223608 83 146 11.3 14.8 0.00 0.00 0.00 77 1005.1
20260505223034 83 205 11.3 15.6 0.00 0.00 0.00 74 1005.2
20260505222541 84 182 11.3 18.2 0.00 0.00 0.00 74 1005.3
20260505221601 84 150 9.6 17.4 0.00 0.00 0.00 74 1005.0
20260505221049 84 184 7.0 13.0 0.00 0.00 0.00 75 1005.0
20260505220050 84 167 10.4 19.1 0.00 0.00 0.00 75 1005.0
20260505215602 84 173 8.7 12.2 0.00 0.00 0.00 75 1005.1
20260505214539 84 185 10.4 13.9 0.00 0.00 0.00 74 1005.2
20260505214042 84 192 9.6 13.9 0.00 0.00 0.00 74 1005.3
20260505213049 85 196 10.4 18.2 0.00 0.00 0.00 73 1005.2
20260505212559 85 164 8.7 18.2 0.00 0.00 0.00 73 1005.4
20260505211621 84 191 11.3 14.8 0.00 0.00 0.00 73 1005.5
20260505211032 84 184 9.6 15.6 0.00 0.00 0.00 74 1005.6
20260505210053 85 201 8.7 13.0 0.00 0.00 0.00 74 1005.8
20260505205617 85 178 9.6 15.6 0.00 0.00 0.00 74 1005.9
20260505204617 84 192 10.4 15.6 0.00 0.00 0.00 74 1006.0
20260505204031 84 195 9.6 13.0 0.00 0.00 0.00 75 1006.0
20260505203054 84 181 9.6 13.9 0.00 0.00 0.00 75 1006.3
20260505202543 84 157 9.6 14.8 0.00 0.00 0.00 76 1006.3
20260505201604 84 207 9.6 15.6 0.00 0.00 0.00 75 1006.4
20260505201053 84 162 10.4 14.8 0.00 0.00 0.00 73 1006.5
20260505200052 84 195 8.7 14.8 0.00 0.00 0.00 76 1006.6
20260505195533 83 227 11.3 14.8 0.00 0.00 0.00 76 1006.6
20260505194601 83 170 8.7 15.6 0.00 0.00 0.00 76 1006.7
20260505194108 84 198 11.3 15.6 0.00 0.00 0.00 74 1006.7
20260505193115 84 219 8.7 18.2 0.00 0.00 0.00 75 1006.9
20260505192557 84 182 9.6 16.5 0.00 0.00 0.00 75 1006.8
20260505192103 84 184 8.7 14.8 0.00 0.00 0.00 76 1007.0
20260505191527 82 178 11.3 14.8 0.00 0.00 0.00 77 1007.0
20260505191140 82 205 10.4 13.9 0.00 0.00 0.00 76 1007.1
20260505190557 83 200 9.6 13.0 0.00 0.00 0.00 76 1007.1
20260505190030 83 184 9.6 17.4 0.00 0.00 0.00 76 1007.1
20260505185540 83 225 8.7 17.4 0.00 0.00 0.00 76 1007.1
20260505184601 83 199 9.6 15.6 0.00 0.00 0.00 77 1007.3
20260505184118 83 182 11.3 17.4 0.00 0.00 0.00 76 1007.3
20260505183116 82 205 7.8 13.0 0.00 0.00 0.00 78 1007.5
20260505182621 81 184 7.0 13.9 0.00 0.00 0.00 79 1007.5
20260505181622 81 257 11.3 13.9 0.00 0.00 0.00 77 1007.6
20260505181025 82 227 8.7 15.6 0.00 0.00 0.00 78 1007.6
20260505180042 81 213 10.4 19.1 0.00 0.00 0.00 78 1007.6
20260505175553 81 207 11.3 18.2 0.00 0.00 0.00 78 1007.6
20260505175055 81 191 10.4 17.4 0.00 0.00 0.00 78 1007.7
20260505174525 81 219 8.7 13.0 0.00 0.00 0.00 79 1007.8
20260505174035 80 164 9.6 13.0 0.00 0.00 0.00 79 1007.9
20260505173055 81 232 10.4 18.2 0.00 0.00 0.00 77 1007.8
20260505172556 81 211 9.6 18.2 0.00 0.00 0.00 79 1007.8
20260505171624 81 202 12.2 19.1 0.00 0.00 0.00 78 1007.9
20260505171030 80 195 9.6 14.8 0.00 0.00 0.00 80 1007.9
20260505170637 80 232 7.0 14.8 0.00 0.00 0.00 81 1008.1
20260505170038 80 216 7.8 18.2 0.00 0.00 0.00 82 1008.1
20260505165546 79 211 11.3 18.2 0.00 0.00 0.00 82 1008.1
20260505164606 79 223 9.6 15.6 0.00 0.00 0.00 83 1008.2
20260505164056 78 210 8.7 13.9 0.00 0.00 0.00 83 1008.1
20260505163056 78 202 7.0 18.2 0.00 0.00 0.00 84 1008.2
20260505162606 78 242 11.3 18.2 0.00 0.00 0.00 83 1008.1
20260505162111 78 213 7.8 16.5 0.00 0.00 0.00 85 1008.2
20260505161537 77 215 10.4 16.5 0.00 0.00 0.00 85 1008.2
20260505161044 77 221 8.7 15.6 0.00 0.00 0.00 86 1008.2
20260505153118 75 209 5.2 11.3 0.00 0.00 0.00 88 1008.0
20260505152527 75 207 8.7 11.3 0.00 0.00 0.00 88 1008.1
20260505152131 75 198 8.7 11.3 0.00 0.00 0.00 88 1008.1
20260505151540 75 209 6.1 11.3 0.00 0.00 0.00 88 1008.1
20260505151053 75 199 8.7 11.3 0.00 0.00 0.00 88 1008.0
20260505140120 74 196 6.1 11.3 0.00 0.00 0.00 89 1007.8
20260505130116 72 173 8.7 14.8 0.00 0.00 0.00 90 1007.3
20260505124626 72 190 9.6 13.9 0.00 0.00 0.00 90 1007.3
20260505124116 72 219 8.7 13.9 0.00 0.00 0.00 91 1007.4
20260505123618 72 180 8.7 13.0 0.00 0.00 0.00 90 1007.3
20260505123028 72 163 7.0 12.2 0.00 0.00 0.00 91 1007.3
20260505122536 72 215 7.8 13.0 0.00 0.00 0.00 91 1007.4
20260505121634 72 213 7.8 13.0 0.00 0.00 0.00 91 1007.0
20260505121054 72 191 7.8 13.9 0.00 0.00 0.00 91 1006.9
20260505120601 71 215 8.7 13.0 0.00 0.00 0.00 91 1006.9
20260505120024 71 208 7.0 13.0 0.00 0.00 0.00 91 1007.0
20260505115635 71 202 7.0 13.0 0.00 0.00 0.00 91 1007.1
20260505114614 71 207 8.7 12.2 0.00 0.00 0.00 91 1007.1
20260505114058 71 204 8.7 14.8 0.00 0.00 0.00 91 1007.0
20260505113608 71 194 8.7 14.8 0.00 0.00 0.00 91 1007.1
20260505112533 71 200 9.6 13.9 0.00 0.00 0.00 91 1006.9
20260505111553 71 200 8.7 14.8 0.00 0.00 0.00 91 1007.0
20260505111100 71 202 8.7 17.4 0.00 0.00 0.00 91 1006.8
20260505110557 71 189 10.4 15.6 0.00 0.00 0.00 91 1006.7
20260505102114 70 186 8.7 13.0 0.00 0.00 0.00 90 1006.9
20260505101534 70 190 7.8 11.3 0.00 0.00 0.00 91 1007.0
20260505101045 70 200 7.8 13.0 0.00 0.00 0.00 90 1006.8
20260505100044 70 200 9.6 16.5 0.00 0.00 0.00 91 1007.1
20260505095553 70 196 7.8 11.3 0.00 0.00 0.00 90 1007.1
20260505094547 70 214 7.0 13.0 0.00 0.00 0.00 90 1007.0
20260505094053 70 192 8.7 13.0 0.00 0.00 0.00 90 1007.0
20260505093558 70 192 7.0 11.3 0.00 0.00 0.00 90 1006.9
20260505093029 70 186 7.8 12.2 0.00 0.00 0.00 90 1007.0
20260505092532 70 200 7.8 13.0 0.00 0.00 0.00 90 1007.1
20260505091552 71 202 8.7 12.2 0.00 0.00 0.00 89 1007.3
20260505091102 71 208 7.0 16.5 0.00 0.00 0.00 89 1007.3
20260505090558 71 217 10.4 15.6 0.00 0.00 0.00 89 1007.2
20260505090025 71 209 9.6 14.8 0.00 0.00 0.00 89 1007.1
20260505085541 71 184 8.7 15.6 0.00 0.00 0.00 89 1007.1
20260505085141 71 196 8.7 15.6 0.00 0.00 0.00 89 1007.2
20260505084549 71 202 9.6 13.9 0.00 0.00 0.00 89 1007.3
20260505084102 71 204 11.3 13.9 0.00 0.00 0.00 89 1007.4
20260505083103 71 194 8.7 12.2 0.00 0.00 0.00 89 1007.7
20260505082606 71 186 7.0 13.9 0.00 0.00 0.00 89 1007.8
20260505082116 71 205 7.8 12.2 0.00 0.00 0.00 89 1007.8
20260505081544 71 204 7.8 12.2 0.00 0.00 0.00 88 1007.8
20260505081046 71 219 7.8 13.9 0.00 0.00 0.00 88 1007.7
20260505080109 71 199 7.0 11.3 0.00 0.00 0.00 88 1007.9
20260505075601 71 190 7.0 10.4 0.00 0.00 0.00 88 1008.0
20260505075101 71 190 7.0 10.4 0.00 0.00 0.00 88 1008.0
20260505074531 71 185 7.8 13.0 0.00 0.00 0.00 88 1007.9
20260505074123 71 203 7.8 11.3 0.00 0.00 0.00 88 1007.9
20260505073626 71 196 7.0 13.0 0.00 0.00 0.00 88 1008.1
20260505073049 70 180 7.8 13.0 0.00 0.00 0.00 88 1008.2
20260505072558 70 190 6.1 8.7 0.00 0.00 0.00 88 1008.2
20260505071620 70 189 7.0 12.2 0.00 0.00 0.00 88 1008.4
20260505071028 70 196 6.1 8.7 0.00 0.00 0.00 88 1008.4
20260505070636 70 191 6.1 8.7 0.00 0.00 0.00 88 1008.5
20260505070044 70 175 6.1 8.7 0.00 0.00 0.00 88 1008.4
20260505065526 70 183 6.1 8.7 0.00 0.00 0.00 88 1008.6
20260505065034 70 185 6.1 9.6 0.00 0.00 0.00 88 1008.6
20260505064536 70 178 6.1 10.4 0.00 0.00 0.00 88 1008.6
20260505064046 70 180 6.1 11.3 0.00 0.00 0.00 88 1008.6
20260505063547 70 178 7.0 12.2 0.00 0.00 0.00 88 1008.5
20260505063026 70 172 7.0 12.2 0.00 0.00 0.00 88 1008.4
20260505062535 70 147 7.0 12.2 0.00 0.00 0.00 87 1008.4
20260505062044 70 183 7.0 13.0 0.00 0.00 0.00 87 1008.5
20260505061536 70 175 7.0 13.0 0.00 0.00 0.00 87 1008.5
20260505061025 70 185 7.8 13.0 0.00 0.00 0.00 87 1008.5
20260505060524 70 182 8.7 13.0 0.00 0.00 0.00 87 1008.5
20260505060028 70 146 8.7 12.2 0.00 0.00 0.00 87 1008.5
20260505055556 70 177 8.7 11.3 0.00 0.00 0.00 86 1008.5
20260505055043 70 181 8.7 17.4 0.00 0.00 0.00 86 1008.5
20260505054535 70 186 8.7 16.5 0.00 0.00 0.00 86 1008.5
20260505054112 70 182 9.6 17.4 0.00 0.00 0.00 86 1008.6
20260505053533 70 180 10.4 14.8 0.00 0.00 0.00 86 1008.7
20260505053033 70 189 8.7 13.9 0.00 0.00 0.00 86 1008.8
20260505052542 70 185 7.8 13.9 0.00 0.00 0.00 86 1008.7
20260505052050 70 181 7.8 13.0 0.00 0.00 0.00 86 1008.8
20260505051542 70 185 9.6 12.2 0.00 0.00 0.00 85 1008.7
20260505051033 70 192 8.7 13.9 0.00 0.00 0.00 85 1008.7
20260505050536 71 191 8.7 13.9 0.00 0.00 0.00 85 1008.8
20260505050122 71 184 9.6 12.2 0.00 0.00 0.00 85 1008.8
20260505041531 71 172 9.6 13.9 0.00 0.00 0.00 83 1009.3
20260505041034 71 171 8.7 13.9 0.00 0.00 0.00 83 1009.2
20260505040104 72 188 7.0 13.0 0.00 0.00 0.00 82 1009.3
20260505035611 72 171 9.6 13.0 0.00 0.00 0.00 81 1009.2
20260505035117 72 191 9.6 14.8 0.00 0.00 0.00 81 1009.2
20260505034529 72 189 8.7 15.6 0.00 0.00 0.00 81 1009.0
20260505034030 72 172 10.4 15.6 0.00 0.00 0.00 81 1008.9
20260505033052 72 189 8.7 12.2 0.00 0.00 0.00 81 1009.1
20260505032603 73 187 7.8 11.3 0.00 0.00 0.00 81 1009.2